Preview of NWS' New Version of Forecast
This preview is not operational and should not be used for support decisions.

Regional Weather Roundup (RWR)

Issued by National Weather Service (NWS)

                            
000
ASUS43 KDMX 222106
RWRIA 

WEATHER ROUNDUP FOR IOWA
NATIONAL WEATHER SERVICE DES MOINES IA
400 PM CDT SUN SEP 22 2019

NOTE: "FAIR" INDICATES FEW OR NO CLOUDS BELOW 12,000 FEET WITH NO
SIGNIFICANT WEATHER AND/OR OBSTRUCTIONS TO VISIBILITY.

* - THESE STATIONS ARE NOT NWS STATIONS...THUS NOT UNDER NWS
QUALITY CONTROL.  THEY ALSO DO NOT REPORT WEATHER SUCH 
AS PRECIPITATION OR FOG.  

IAZ001>003-012>014-020>022-031>034-043>046-222200-
   NORTHWEST IOWA
  
CITY           SKY/WX    TMP DP  RH WIND       PRES   REMARKS
CARROLL *      PTSUNNY   68  57  68 NW9       29.89S                  
CHEROKEE *     PTSUNNY   68  56  64 N7        29.91S                  
DENISON *      PTSUNNY   72  61  68 NW7G14    29.92S                  
LE MARS *      PTSUNNY   70  55  60 NW8G15    29.91S                  
SIOUX CITY     PTSUNNY   71  56  58 NW8       29.91S                  
SPENCER        PTSUNNY   67  54  63 N8        29.92S                  
STORM LAKE *   MOSUNNY   68  57  68 N9        29.88S                  
$$
 
IAZ055>058-069>071-079>083-090>094-222200-
   SOUTHWEST IOWA
  
CITY           SKY/WX    TMP DP  RH WIND       PRES   REMARKS
ATLANTIC *       N/A     68  59  73 N10       29.89S                  
AUDUBON *        N/A     68  57  68 NW10      29.91S                  
CLARINDA *     CLOUDY    68  64  88 N14G20    29.91R                  
COUNCIL BLFS * MOSUNNY   70  57  64 NW6       29.90S                  
CRESTON *      LGT RAIN  64  64 100 NW12G18   29.89R                  
HARLAN  *      CLOUDY    70  57  64 NW8       29.90S                  
LAMONI         CLOUDY    70  64  81 SW7       29.85F                  
RED OAK *      CLOUDY    68  59  73 N9G17     29.91R                  
SHENANDOAH *   CLOUDY    70  61  73 N6G15     29.90S                  
$$
 
IAZ047>049-059>061-072>074-084-222200-
   CENTRAL IOWA
  
CITY           SKY/WX    TMP DP  RH WIND       PRES   REMARKS
AMES           HVY RAIN  65  64  97 NW8       29.86F FOG              
ANKENY *       PTSUNNY   68  66  94 NW3       29.85F                  
BOONE *        RAIN      63  63 100 NW8       29.86F                  
CHARITON *     CLOUDY    70  70 100 W5        29.83F                  
DES MOINES     CLOUDY    69  63  81 W12       29.83F                  
GRINNELL*      CLOUDY    71  64  80 W8        29.85F                  
KNOXVILLE *    LGT RAIN  68  66  94 CALM      29.83F                  
MARSHALLTOWN   CLOUDY    67  64  90 W5        29.85R                  
NEWTON *       CLOUDY    70  64  83 CALM      29.82F                  
PELLA *        PTSUNNY   70  68  93 SE3       29.84F                  
PERRY *        DRIZZLE   63  58  84 NW12      29.89R                  
$$
 
IAZ004>006-015-016-023>025-035-036-222200-
   NORTH CENTRAL IOWA
  
CITY           SKY/WX    TMP DP  RH WIND       PRES   REMARKS
ALGONA *       SUNNY     59  59 100 N8        29.90S                  
CLARION *      MOSUNNY   61  59  94 SW3       29.90S FOG              
ESTHERVILLE    CLOUDY    60  53  77 NW8       29.92R                  
FORT DODGE *   LGT RAIN  62  57  83 N5        29.90S                  
MASON CITY     RAIN      63  58  83 NW12      29.90R                  
FOREST CITY *  LGT RAIN  63  57  82 NW9       29.90R                  
IOWA FALLS *   RAIN      65  58  77 NW9       29.87S                  
$$

IAZ007>011-017>019-026>030-037>042-050>054-066-222200-
   NORTHEAST IOWA
  
CITY           SKY/WX    TMP DP  RH WIND       PRES   REMARKS
CEDAR RAPIDS   CLOUDY    69  65  86 W5        29.82S                  
CHARLES CITY * CLOUDY    66  57  72 NW12G17   29.86S                  
CLINTON *      LGT RAIN  68  67  96 W6        29.82F                  
DECORAH *      FAIR      70  63  78 VRB5G12   29.81F                  
DUBUQUE        PTSUNNY   67  65  93 SW8       29.82F                  
MONTICELLO *   PTSUNNY   70  68  94 SW5       29.82F                  
OELWEIN *      CLOUDY    70  63  78 S6        29.84S                  
WATERLOO       CLOUDY    72  60  66 CALM      29.82S                  
$$
 
IAZ064-065-067-068-078-222200-
   EAST CENTRAL IOWA
  
CITY           SKY/WX    TMP DP  RH WIND       PRES   REMARKS
DAVENPORT      PTSUNNY   68  65  90 NW5       29.83S                  
IOWA CITY      FAIR      71  64  78 SW3       29.83F                  
MUSCATINE *    CLOUDY    70  66  88 CALM      29.82S                  
QUAD CITIES    PTSUNNY   70  66  87 S5        29.79R                  
$$
 
IAZ062-063-075>077-085>089-095>099-222200-
   SOUTHEAST IOWA
  
CITY           SKY/WX    TMP DP  RH WIND       PRES   REMARKS
BURLINGTON     CLOUDY    71  67  87 CALM      29.81R                  
FAIRFIELD *    CLOUDY    70  66  88 W6        29.83F                  
FORT MADISON * CLOUDY    70  70 100 CALM      29.82R                  
KEOKUK *       CLOUDY    72  70  94 W5        29.82R                  
OSKALOOSA *    PTSUNNY   71  63  75 CALM      29.85S                  
CENTERVILLE *  FAIR      68  68 100 W3        29.86S                  
OTTUMWA        CLOUDY    70  65  84 W8        29.84S                  
WASHINGTON *     N/A     70  68  94 W3        29.82S                  
$$

ABBREVIATIONS USED IN REMARKS
   TC - TEMPERATURES IN CELSIUS
  WCI - WIND CHILL INDEX
   HX - HEAT INDEX
  VSB - VISIBILITY  
$$